FW6766 Weather Reports


Display with metric or nautical units.
time (UTC)temp
F
wind
direction
speed
MPH
gust
MPH
rain 1hr
in
rain 24hr
in
rain mn
in
humidity
%
barometer
mb
20260902045517 75 0.0 0.0 0.00 0.00 0.00 88 1020.5
20260902044538 75 0.0 0.0 0.00 0.00 0.00 88 1020.5
20260902043517 75 0.0 0.0 0.00 0.00 0.00 88 1020.5
20260902042517 75 0.0 0.0 0.00 0.00 0.00 87 1020.5
20260902041539 75 0.0 0.0 0.00 0.00 0.00 86 1020.6
20260902040517 75 0.0 0.0 0.00 0.00 0.00 84 1020.6
20260902035517 76 0.0 0.0 0.00 0.00 0.00 84 1020.5
20260902034517 76 0.0 0.0 0.00 0.00 0.00 83 1020.5
20260902033517 76 0.0 0.0 0.00 0.00 0.00 83 1020.5
20260902032517 76 0.0 0.0 0.00 0.00 0.00 83 1020.2
20260902031537 76 0.0 0.0 0.00 0.00 0.00 82 1020.3
20260902030518 76 0.0 0.0 0.00 0.00 0.00 80 1020.3
20260902025517 76 0.0 0.0 0.00 0.00 0.00 80 1020.1
20260902024517 76 0.0 0.0 0.00 0.00 0.00 80 1020.1
20260902023517 76 0.0 0.0 0.00 0.00 0.00 81 1020.1
20260902022517 76 0.0 0.0 0.00 0.00 0.00 81 1020.0
20260902021517 76 0.0 0.0 0.00 0.00 0.00 82 1019.9
20260902020517 77 0.0 0.0 0.00 0.00 0.00 81 1020.0
20260902015517 77 0.0 0.0 0.00 0.00 0.00 81 1019.7
20260902014558 78 0.0 0.0 0.00 0.00 0.00 81 1019.7
20260902013517 78 0.0 0.0 0.00 0.00 0.00 78 1019.6
20260902012517 78 0.0 0.0 0.00 0.00 0.00 76 1019.5
20260902011517 79 0.0 0.0 0.00 0.00 0.00 76 1019.5
20260902010518 79 0.0 0.0 0.00 0.00 0.00 74 1019.3
20260902005517 80 0.0 0.0 0.00 0.00 0.00 72 1019.0
20260902004516 80 0.0 0.0 0.00 0.00 0.00 71 1019.1
20260902003517 81 0.0 0.0 0.00 0.00 0.00 70 1019.2
20260902002517 81 0.0 0.0 0.00 0.00 0.00 70 1019.1
20260902001516 82 0.0 0.0 0.00 0.00 0.00 68 1019.3
20260902000517 82 0.0 0.0 0.00 0.00 0.00 67 1019.2
20260901235516 83 0.0 0.0 0.00 0.00 0.00 66 1019.3
20260901234517 84 0.0 0.0 0.00 0.00 0.00 66 1019.3
20260901233516 84 0.0 0.0 0.00 0.00 0.00 64 1019.3
20260901232516 85 0.0 0.0 0.00 0.00 0.00 63 1019.3
20260901231516 86 0.0 0.0 0.00 0.00 0.00 61 1019.3
20260901230516 86 0.0 0.0 0.00 0.00 0.00 59 1019.4
20260901225516 87 0.0 0.0 0.00 0.00 0.00 58 1019.4
20260901224517 88 0.0 0.0 0.00 0.00 0.00 54 1019.5
20260901223517 89 0.0 0.0 0.00 0.00 0.00 54 1019.4
20260901222516 90 0.0 0.0 0.00 0.00 0.00 55 1019.5
20260901221516 91 0.0 1.0 0.00 0.00 0.00 55 1019.5
20260901220516 91 0.0 2.0 0.00 0.00 0.00 56 1019.4
20260901215516 91 0.0 0.0 0.00 0.00 0.00 48 1019.3
20260901214516 91 0.0 0.0 0.00 0.00 0.00 54 1019.3
20260901213536 91 0.0 0.0 0.00 0.00 0.00 55 1019.3
20260901212517 92 0.0 0.0 0.00 0.00 0.00 53 1019.4
20260901211516 93 0.0 2.0 0.00 0.00 0.00 54 1019.6
20260901210516 93 0.0 1.0 0.00 0.00 0.00 50 1019.6
20260901205536 94 0.0 1.0 0.00 0.00 0.00 49 1019.7
20260901204516 93 0.0 1.0 0.00 0.00 0.00 47 1019.8
20260901203516 93 0.0 2.0 0.00 0.00 0.00 51 1019.9
20260901202557 92 0.0 1.0 0.00 0.00 0.00 51 1019.9
20260901201516 92 0.0 1.0 0.00 0.00 0.00 51 1020.1
20260901200516 92 315 1.0 6.0 0.00 0.00 0.00 47 1020.1
20260901195516 93 315 1.0 3.0 0.00 0.00 0.00 51 1020.3
20260901194516 93 0.0 0.0 0.00 0.00 0.00 53 1020.4
20260901193515 93 23 1.0 4.0 0.00 0.00 0.00 52 1020.5
20260901192516 92 0.0 3.0 0.00 0.00 0.00 53 1020.8
20260901191516 91 0.0 3.0 0.00 0.00 0.00 56 1020.8
20260901190536 92 0.0 2.0 0.00 0.00 0.00 54 1020.9
20260901184516 93 0.0 2.0 0.00 0.00 0.00 47 1021.1
20260901183515 94 0.0 1.0 0.00 0.00 0.00 50 1021.3
20260901182515 93 45 1.0 3.0 0.00 0.00 0.00 50 1021.3
20260901181518 93 0.0 2.0 0.00 0.00 0.00 50 1021.4
20260901180517 93 0.0 3.0 0.00 0.00 0.00 51 1021.5
20260901175518 92 23 2.0 5.0 0.00 0.00 0.00 48 1021.5
20260901174518 92 0 2.0 8.0 0.00 0.00 0.00 49 1021.5
20260901173518 92 338 1.0 4.0 0.00 0.00 0.00 54 1021.7
20260901172517 92 0 2.0 4.0 0.00 0.00 0.00 49 1021.7
20260901171517 92 90 1.0 6.0 0.00 0.00 0.00 51 1021.9
20260901170517 91 68 1.0 3.0 0.00 0.00 0.00 55 1022.1
20260901165517 91 23 2.0 6.0 0.00 0.00 0.00 56 1022.1
20260901164518 90 0.0 2.0 0.00 0.00 0.00 56 1022.2
20260901163517 90 23 1.0 5.0 0.00 0.00 0.00 56 1022.3
20260901162517 89 315 1.0 2.0 0.00 0.00 0.00 57 1022.3
20260901161517 89 203 1.0 4.0 0.00 0.00 0.00 57 1022.5
20260901160517 88 0 1.0 5.0 0.00 0.00 0.00 60 1022.7
20260901155517 87 23 2.0 5.0 0.00 0.00 0.00 60 1022.8
20260901154517 87 0 1.0 4.0 0.00 0.00 0.00 64 1023.0
20260901153538 86 293 1.0 3.0 0.00 0.00 0.00 68 1023.0
20260901152517 84 0.0 2.0 0.00 0.00 0.00 69 1023.0
20260901151517 83 338 1.0 3.0 0.00 0.00 0.00 73 1022.9
20260901150537 82 45 1.0 4.0 0.00 0.00 0.00 75 1022.9
20260901145517 81 225 1.0 2.0 0.00 0.00 0.00 77 1022.8
20260901144537 80 225 1.0 3.0 0.00 0.00 0.00 78 1022.7
20260901143517 79 180 1.0 3.0 0.00 0.00 0.00 79 1022.8
20260901142516 79 0.0 3.0 0.00 0.00 0.00 81 1022.9
20260901141516 78 23 1.0 4.0 0.00 0.00 0.00 83 1022.6
20260901140537 77 0.0 0.0 0.00 0.00 0.00 85 1022.6
20260901135517 77 0.0 0.0 0.00 0.00 0.00 88 1022.4
20260901134537 76 0.0 0.0 0.00 0.00 0.00 90 1022.2
20260901133517 75 0.0 0.0 0.00 0.00 0.00 91 1022.1
20260901132517 74 0.0 0.0 0.00 0.00 0.00 94 1022.3
20260901131517 74 0.0 0.0 0.00 0.00 0.00 94 1022.2
20260901130517 73 0.0 0.0 0.00 0.00 0.00 95 1022.2
20260901125516 72 0.0 0.0 0.00 0.00 0.00 96 1022.3
20260901124517 72 0.0 0.0 0.00 0.00 0.00 96 1022.3
20260901123516 71 0.0 0.0 0.00 0.00 0.00 96 1022.1
20260901122516 71 0.0 0.0 0.00 0.00 0.00 96 1022.3
20260901121517 71 0.0 0.0 0.00 0.00 0.00 96 1022.2
20260901120516 70 0.0 0.0 0.00 0.00 0.00 96 1022.0
20260901115516 70 0.0 0.0 0.00 0.00 0.00 95 1021.8
20260901114516 70 0.0 0.0 0.00 0.00 0.00 95 1021.6
20260901113536 70 0.0 0.0 0.00 0.00 0.00 94 1021.6
20260901112516 70 0.0 0.0 0.00 0.00 0.00 94 1021.7
20260901111516 70 0.0 0.0 0.00 0.00 0.00 94 1021.6
20260901110516 70 0.0 0.0 0.00 0.00 0.00 94 1021.5
20260901105537 70 0.0 0.0 0.00 0.00 0.00 94 1021.4
20260901104516 70 0.0 0.0 0.00 0.00 0.00 94 1021.4
20260901103516 70 0.0 0.0 0.00 0.00 0.00 94 1021.3
20260901102516 70 0.0 0.0 0.00 0.00 0.00 94 1021.3
20260901101516 70 0.0 0.0 0.00 0.00 0.00 94 1021.3
20260901100516 70 0.0 0.0 0.00 0.00 0.00 94 1021.2
20260901095517 70 0.0 0.0 0.00 0.00 0.00 94 1021.1
20260901094516 70 0.0 0.0 0.00 0.00 0.00 94 1021.1
20260901093516 70 0.0 0.0 0.00 0.00 0.00 94 1021.0
20260901092516 70 0.0 0.0 0.00 0.00 0.00 93 1021.0
20260901091516 71 0.0 0.0 0.00 0.00 0.00 93 1021.0
20260901090516 71 0.0 0.0 0.00 0.00 0.00 93 1021.0
20260901085516 71 0.0 0.0 0.00 0.00 0.00 93 1020.9
20260901084516 71 0.0 0.0 0.00 0.00 0.00 93 1020.9
20260901083516 71 0.0 0.0 0.00 0.00 0.00 93 1021.0
20260901082516 71 0.0 0.0 0.00 0.00 0.00 93 1021.2
20260901081516 71 0.0 0.0 0.00 0.00 0.00 93 1021.1
20260901080515 71 0.0 0.0 0.00 0.00 0.00 93 1021.2
20260901075515 71 0.0 0.0 0.00 0.00 0.00 93 1021.0
20260901074516 71 0.0 0.0 0.00 0.00 0.00 93 1021.0
20260901073515 71 0.0 0.0 0.00 0.00 0.00 93 1021.0
20260901072515 71 0.0 0.0 0.00 0.00 0.00 92 1021.1
20260901071515 72 0.0 0.0 0.00 0.00 0.00 92 1021.1
20260901070515 72 0.0 0.0 0.00 0.00 0.00 92 1021.1
20260901065515 72 0.0 0.0 0.00 0.00 0.00 92 1021.2
20260901064516 72 0.0 0.0 0.00 0.00 0.00 91 1021.3
20260901063516 72 0.0 0.0 0.00 0.00 0.00 91 1021.3
20260901062515 72 0.0 0.0 0.00 0.00 0.00 91 1021.3
20260901061515 72 0.0 0.0 0.00 0.00 0.00 91 1021.4
20260901060517 72 0.0 0.0 0.00 0.00 0.00 90 1021.3
20260901055517 72 0.0 0.0 0.00 0.00 0.00 90 1021.3
20260901054517 72 0.0 0.0 0.00 0.00 0.00 90 1021.4
20260901053557 72 0.0 0.0 0.00 0.00 0.00 90 1021.5
20260901052537 72 0.0 0.0 0.00 0.00 0.00 90 1021.6
20260901051538 72 0.0 0.0 0.00 0.00 0.00 90 1021.5
20260901050517 72 0.0 0.0 0.00 0.00 0.00 90 1021.6